Location: Mannheim
(49.4880°N, 8.4650°E)
Time: 16:39:17
(UTC+02:00)

ISS - Visible Passes

Search period start: 27 March 2017 00:00
Search period end: 06 April 2017 00:00
Orbit: 399 x 409 km, 51.6° (Epoch: 27 March)

Date Brightness Start Highest point End Pass type
(mag) Time Alt. Az. Time Alt. Az. Time Alt. Az.
27 Mar -1.4 21:50:33 10° SSW 21:51:11 14° SSW 21:51:11 14° SSW visible
28 Mar -2.4 20:58:46 10° SSW 21:01:18 21° SE 21:01:52 20° SE visible
28 Mar -1.0 22:34:09 10° WSW 22:34:35 13° WSW 22:34:35 13° WSW visible
29 Mar -3.8 21:41:50 10° SW 21:45:00 59° SSE 21:45:00 59° SSE visible
30 Mar -3.2 20:49:39 10° SW 20:52:42 38° SSE 20:55:12 14° E visible
30 Mar -2.3 22:25:49 10° W 22:27:53 35° W 22:27:53 35° W visible
31 Mar -3.9 21:33:21 10° WSW 21:36:37 87° NNW 21:37:53 35° ENE visible
31 Mar -0.8 23:10:01 10° WNW 23:10:33 14° WNW 23:10:33 14° WNW visible
01 Apr -3.8 20:40:57 10° WSW 20:44:12 67° SSE 20:47:28 10° ENE visible
01 Apr -3.1 22:17:31 10° W 22:20:25 54° NNW 22:20:25 54° NNW visible
02 Apr -3.5 21:24:58 10° W 21:28:13 64° N 21:30:10 22° ENE visible
02 Apr -1.2 23:01:39 10° WNW 23:02:49 20° WNW 23:02:49 20° WNW visible
03 Apr -3.7 20:32:27 10° WSW 20:35:43 80° NNW 20:39:00 10° ENE visible
03 Apr -3.5 22:09:08 10° WNW 22:12:22 57° N 22:12:30 57° NNE visible
04 Apr -3.3 21:16:35 10° W 21:19:49 56° N 21:22:07 17° ENE visible
04 Apr -1.7 22:53:09 10° WNW 22:54:46 26° WNW 22:54:46 26° WNW visible
05 Apr -3.7 22:00:39 10° WNW 22:03:56 69° NNE 22:04:20 59° ENE visible
